+ View the NASA Portal
+ Center for Near-Earth Object Studies
IMPORTANT:
The SSD Announcement email list is now available. Major changes are coming in the near future, including possible hostname and/or URL changes. To be notified of such changes, subscribe to this email list.
Please visit
this page
for more details.
Don't show this message again
JPL Small-Body Database Browser
Search:
[
help
]
452943 (2006 XA30)
Classification:
Main-belt Asteroid
SPK-ID:
2452943
[
Ephemeris
|
Orbit Diagram
|
Orbital Elements
|
Mission Design
|
Physical Parameters
|
Discovery Circumstances
]
[ show orbit diagram ]
Orbital Elements at Epoch 2458600.5 (2019-Apr-27.0) TDB
Reference:
JPL 14
(heliocentric ecliptic J2000)
Element
Value
Uncertainty (1-sigma)
Units
e
.1461016426617681
6.7196e-08
a
2.713943611144819
3.44e-08
au
q
2.31743199146515
2.0037e-07
au
i
13.79176873242607
6.5908e-06
deg
node
100.6640227753512
2.2117e-05
deg
peri
12.68053247453486
3.1147e-05
deg
M
262.2076685917702
2.1867e-05
deg
t
p
2459044.110641814184
(2020-Jul-13.61064181)
0.00010379
TDB
period
1633.050656972749
4.47
3.1049e-05
8.501e-08
d
yr
n
.2204463152829235
4.1913e-09
deg/d
Q
3.110455230824488
3.9426e-08
au
Orbit Determination Parameters
# obs. used (total)
158
data-arc span
6090 days (16.67 yr)
first obs. used
2003-03-22
last obs. used
2019-11-23
planetary ephem.
DE431
SB-pert. ephem.
SB431-N16
condition code
0
norm. resid. RMS
.64192
source
ORB
producer
Otto Matic
solution date
2019-Dec-05 02:35:22
Additional Information
Earth MOID
= 1.33614 au
Jupiter MOID
= 2.0336 au
T_jup
= 3.305
[ show covariance matrix ]
[
Ephemeris
|
Orbit Diagram
|
Orbital Elements
|
Mission Design
|
Physical Parameters
|
Discovery Circumstances
]
Physical Parameter Table
Parameter
Symbol
Value
Units
Sigma
Reference
Notes
absolute magnitude
H
16.6
n/a
MPO456158
452943 (2006 XA30)
Discovered 2006-Dec-13 by Mt. Lemmon Survey at Mount Lemmon
Reference:
Last Updated:
2016-01-04
Alternate Designations
2006 XA30
= 2008 HD61
[
Ephemeris
|
Orbit Diagram
|
Orbital Elements
|
Mission Design
|
Physical Parameters
|
Discovery Circumstances
]
2019-Dec-10 02:59 UT
(server date/time)
Site Manager:
Ryan S. Park
Webmaster
:
Alan B. Chamberlin